Flag for Honduras Weather past 2 weeks in Tegucigalpa, Honduras

Now
66 °F

Mild.


Feels Like: 66 °F
Forecast: 66 / 81 °F
Wind: No wind

Location: Tegucigalpa Airport

Current Time: Oct 21, 2014 at 7:03:18 AM

Latest Report: Oct 21, 2014 at 6:00 AM


Visibility: N/A

Pressure: 29.98 "Hg

Humidity: 100%

Dew point: 66 °F

Location of TegucigalpaLocation

Historic Weather in Tegucigalpa — Graph

°F

Tegucigalpa temperature yesterday

Maximum temperature yesterday: 81 °F (at 12:00 PM)
Minimum temperature yesterday: 64 °F (at 6:00 AM)
Average temperature yesterday: 72 °F

Past Weeks' High & Low Weather Summary

 TemperatureHumidityPressure
High86 °F (Oct 6, 2:00 PM)100% (Oct 6, 6:00 AM)30.15 "Hg (Oct 6, 6:00 AM)
Low57 °F (Oct 6, 6:00 AM)29% (Oct 12, 1:00 PM)29.89 "Hg (Oct 20, 3:00 PM)
Average71 °F88%30.04 "Hg
* Reported Oct 6 6:00 AM — Oct 21 6:00 AM, Tegucigalpa, Weather by CustomWeather, © 2014

Note: Actual official high and low records may vary slightly from our data, if they occured in-between our weather recording intervals... More about our weather records

Advertising

Tegucigalpa weather history for previous 24 hours

 ConditionsComfort  
Time TempWeatherWind HumidityBarometerVisibility
6:00 AM
Oct 21
66 °FMild.No wind100%29.98 "HgN/A
5:00 AM66 °FPassing clouds.No wind100%29.98 "HgN/A
4:00 AM66 °FPassing clouds.No wind100%29.98 "HgN/A
3:00 AM66 °FPassing clouds.No wind100%29.98 "HgN/A
2:00 AM66 °FPassing clouds.No wind100%29.98 "HgN/A
1:00 AM68 °FPassing clouds.No wind94%29.98 "HgN/A
12:00 AM68 °FPassing clouds.No wind94%30.01 "HgN/A
11:00 PM
Oct 20
70 °FPassing clouds.5 mph94%30.01 "HgN/A
10:00 PM70 °FPassing clouds.2 mph94%30.04 "HgN/A
9:00 PM70 °FPassing clouds.3 mph88%30.01 "HgN/A
8:00 PM70 °FPassing clouds.6 mph88%30.01 "HgN/A
7:00 PM72 °FPassing clouds.8 mph83%29.95 "HgN/A
6:00 PM73 °FPartly cloudy.6 mph83%29.92 "Hg6 mi
5:00 PM75 °FDrizzle. Broken clouds.7 mph78%29.92 "HgN/A
4:00 PM79 °FThunderstorms. Broken clouds.8 mph70%29.89 "HgN/A
3:00 PM81 °FThunderstorms. Broken clouds.9 mph70%29.89 "HgN/A
2:00 PM81 °FPartly sunny.13 mph70%29.92 "Hg6 mi
1:00 PM81 °FScattered clouds.8 mph66%29.95 "HgN/A
12:00 PM81 °FPartly sunny.7 mph58%29.98 "HgN/A
11:00 AM79 °FScattered clouds.3 mph70%30.01 "HgN/A
10:00 AM79 °FScattered clouds.No wind70%30.04 "HgN/A
9:00 AM73 °FScattered clouds.6 mph78%30.04 "HgN/A
8:00 AM73 °FScattered clouds.3 mph89%30.04 "Hg4 mi
7:00 AM66 °FBroken clouds.No wind100%30.04 "Hg4 mi
Weather by CustomWeather, © 2014

See weather overviewHow to use our weather pages